STARLINK-4117 (53169 NORAD) Tracking and Keplerian Element Data

This shows tracking and keplerian element data for the satellite.

Feedback or suggestion? Click here.




ElementValue
Catalog53169
NameSTARLINK-4117
Epoch Orbit1193
Epoch Day270.25001157
Epoch Year2022
RAAN52.1843
Inclination53.215
Eccentricity0.0004387
Argument of Perigee3.2521
Mean Anonmoly109.0718
Mean Motion15.73197282
Decay Rate0.00110561
L11 53169U 22083AP 22270.25001157 .00110561 00000+0 78163-3 0 9994
L22 53169 53.2150 52.1843 0004387 3.2521 109.0718 15.73197282 11935

Live tracking and technical data element details for STARLINK-4117 (NORAD 53169). STARLINK-4117 can be tracked NOW for your location showing map with azimuth and elevation plus other details from your city location.

Track the satellite on the map from your city or location and see movement details for azimuth, elevation, latitude, longitude, range, height, and movement on the map or in text.







IsCatalogInMostPopularTable: catalog: 53169, numindb: 5
Update: records affected: 1



GetName: 53169 STARLINK-4117

Hit Count: updated at: Fri, 30 Sep 2022 04:27:53 GMT